Location: ??????
(42.0089°N, 44.3281°E)
Time: 17:18:43
(UTC+00:00)

Cosmos 220 Rocket - Pass Details

Date: 04 June 2022
Orbit: 572 x 614 km, 74.0° (Epoch: 30 June)

Event Time Altitude Azimuth Distance (km) Brightness Sun altitude
Exits shadow 20:39:59 - 267° (W) 2,181 6.9 -25.3°
Reaches altitude 10° 20:41:34 10° 285° (WNW) 1,881 6.7 -25.3°
Maximum altitude 20:43:02 12° 306° (NW) 1,782 6.9 -25.3°
Drops below altitude 10° 20:44:31 10° 327° (NNW) 1,888 7.3 -25.4°
Sets 20:48:14 0° 0° (N) 2,798 8.8 -25.4°
